This is the latest recevied weather packets stored in our database for station/object N0FDH. If no packets are shown the sender has not sent any weather packets the latest 10 day(s).
| Time | Temp. | Humidity | Pressure | Rain* | Wind** | Luminosity | Snow |
|---|---|---|---|---|---|---|---|
| 1777551869 | 0° C | 88% | 1017.7 hPa | 0 mm | - | 54 W/m² | - |
| 1777551567 | -0.56° C | 89% | 1017.8 hPa | 0 mm | - | 47 W/m² | - |
| 1777551263 | -0.56° C | 89% | 1017.7 hPa | 0 mm | - | 42 W/m² | - |
| 1777550960 | -0.56° C | 89% | 1017.8 hPa | 0 mm | - | 39 W/m² | - |
| 1777550657 | -1.11° C | 89% | 1017.8 hPa | 0 mm | - | 32 W/m² | - |
| 1777550353 | -1.11° C | 90% | 1017.8 hPa | 0 mm | - | 24 W/m² | - |
| 1777550049 | -1.11° C | 90% | 1017.4 hPa | 0 mm | - | 19 W/m² | - |
| 1777549746 | -1.11° C | 90% | 1017.5 hPa | 0 mm | - | 18 W/m² | - |
| 1777549441 | -1.67° C | 91% | 1017.5 hPa | 0 mm | - | 17 W/m² | - |
| 1777549138 | -1.67° C | 90% | 1017.4 hPa | 0 mm | - | 16 W/m² | - |
| 1777548834 | -1.67° C | 90% | 1017.5 hPa | 0 mm | - | 14 W/m² | - |
| 1777548532 | -1.11° C | 90% | 1017.5 hPa | 0 mm | - | 12 W/m² | - |
| 1777548228 | -1.11° C | 90% | 1017.5 hPa | 0 mm | - | 10 W/m² | - |
| 1777547925 | -1.11° C | 90% | 1017.4 hPa | 0 mm | - | 8 W/m² | - |
| 1777547621 | -1.67° C | 90% | 1017.3 hPa | 0 mm | - | 6 W/m² | - |
| 1777547318 | -1.67° C | 90% | 1017.3 hPa | 0 mm | - | 5 W/m² | - |
| 1777547015 | -1.67° C | 90% | 1017.3 hPa | 0 mm | - | 3 W/m² | - |
| 1777546712 | -1.67° C | 90% | 1017.2 hPa | 0 mm | - | 2 W/m² | - |
| 1777546409 | -1.67° C | 90% | 1017.2 hPa | 0 mm | - | 1 W/m² | - |
| 1777546106 | -1.67° C | 90% | 1017.4 hPa | 0 mm | - | 1 W/m² | - |
| 1777545802 | -1.67° C | 90% | 1017.3 hPa | 0 mm | - | 0 W/m² | - |
| 1777545499 | -1.67° C | 89% | 1017.3 hPa | 0 mm | - | 0 W/m² | - |
| 1777545196 | -1.67° C | 90% | 1017.5 hPa | 0 mm | - | 0 W/m² | - |
| 1777544894 | -1.67° C | 90% | 1017.4 hPa | 0 mm | - | 0 W/m² | - |
| 1777544589 | -1.67° C | 89% | 1017.4 hPa | 0 mm | - | 0 W/m² | - |
* Rain latest hour (hover to see other rain measurements)
** Current wind speed in m/s (hover to see current wind gust speed)